Theta_e
323 326 326 337 342 343 343 344 345 345 346 347 347 347 347 348 348 348 348 349 349 349 349 348 349 349 348 349 348 349 349 348 348 348 348 347 348 348 348 347 348 348 348 348 349 349 348 347 348 350 350 350 351 350 350 349 349 348 348 348 347 348 348 348 347 348 348 348 348 350 349 350 351 351 349 354 353 354 353 353 352 347 346 349 354
322 324 326 330 341 341 342 343 343 344 344 345 346 346 346 346 347 347 348 348 348 348 348 348 348 348 349 348 348 348 348 348 348 347 347 348 348 347 348 348 348 348 348 347 349 348 350 349 348 348 348 350 350 350 350 349 350 349 348 349 349 348 347 346 345 345 345 344 345 347 345 347 348 350 350 352 352 353 353 352 352 347 344 353 354
323 324 324 328 339 341 340 340 341 341 342 344 344 345 345 346 346 347 347 347 348 348 348 348 348 348 348 348 348 349 348 347 347 347 347 347 347 347 348 347 347 348 347 348 348 348 346 349 348 347 349 348 348 348 348 348 347 348 348 347 346 344 343 342 341 342 343 344 345 344 343 343 345 351 354 353 352 351 353 352 351 350 349 353 353
323 324 323 330 337 339 338 338 339 339 340 340 343 343 343 344 344 345 346 347 347 347 347 347 347 348 347 347 347 347 347 347 346 346 346 345 345 344 345 346 347 347 346 347 348 347 346 347 347 348 346 346 346 347 347 347 346 346 346 345 344 342 341 340 339 341 342 343 344 341 340 337 337 349 354 352 353 354 352 352 351 352 353 353 353
323 323 322 322 326 335 337 337 338 338 339 340 341 341 341 341 342 342 344 344 344 345 345 345 345 345 345 345 345 345 345 345 344 344 343 343 342 342 342 344 345 345 346 346 347 346 345 346 346 345 343 342 343 343 344 344 344 343 343 343 342 340 338 338 338 340 341 342 342 339 336 337 334 345 347 354 354 353 352 352 351 352 352 352 351
322 321 321 321 322 330 336 336 337 337 337 338 338 338 339 339 339 340 340 341 342 342 342 342 343 343 343 343 342 343 342 342 342 342 341 340 340 340 340 341 342 343 343 344 345 345 345 344 343 342 340 339 339 340 341 342 342 341 340 340 339 335 333 334 337 338 339 339 339 336 336 336 335 338 348 348 352 351 350 348 347 348 349 351 351
321 320 321 320 321 326 335 335 336 336 336 337 337 337 337 336 337 337 337 339 339 339 339 340 340 340 340 340 340 340 339 339 339 339 339 338 337 338 338 338 339 341 342 342 341 342 342 341 340 338 336 335 335 335 336 337 337 337 337 336 334 331 329 330 333 334 335 334 332 333 334 335 336 335 349 348 349 350 347 347 348 348 349 350 350
320 320 320 319 320 329 335 334 335 334 335 335 335 336 336 335 335 335 335 336 336 335 335 336 336 337 337 337 337 337 336 336 336 336 335 335 334 333 334 335 336 336 337 338 337 337 336 336 336 335 333 331 331 330 331 332 331 332 332 331 330 329 326 327 327 328 329 327 328 331 333 334 335 336 350 348 349 349 349 349 348 347 348 349 347
319 320 321 320 321 332 334 333 334 334 334 334 335 334 334 334 334 334 335 335 335 335 334 333 333 334 334 334 334 334 334 334 333 333 332 332 331 331 330 330 331 332 333 333 333 333 333 332 332 331 330 329 328 327 327 328 328 328 328 328 327 326 325 324 323 320 320 323 325 327 329 334 334 334 343 346 348 348 348 348 348 348 349 348 348
318 319 319 318 320 332 333 332 333 334 334 333 333 333 333 333 333 333 333 333 333 334 334 333 333 333 333 332 332 332 332 331 330 330 329 329 328 328 328 327 328 329 330 331 331 330 329 329 329 328 328 326 326 326 325 326 327 326 326 326 325 325 324 324 321 314 312 316 320 322 326 334 332 333 342 347 347 348 347 345 344 343 345 347 346
316 318 318 319 319 331 331 332 332 332 333 333 333 333 333 333 333 334 333 333 333 332 332 331 331 330 330 330 329 329 330 329 329 328 327 327 327 326 326 326 326 326 326 327 327 327 326 326 327 326 326 325 324 324 325 325 325 324 324 324 323 324 324 323 319 309 309 311 314 317 322 330 328 330 343 346 345 348 347 346 344 344 347 346 346
316 316 317 318 326 330 330 331 332 333 333 333 333 333 332 332 332 332 332 331 331 330 330 330 328 328 328 328 328 329 329 328 327 325 325 325 325 325 325 324 324 324 325 325 325 326 325 325 325 325 324 324 323 323 323 322 322 323 322 322 322 323 322 321 314 310 307 308 309 316 316 322 327 333 345 346 346 344 347 346 345 346 346 346 346
314 315 316 317 320 329 330 331 331 331 331 332 331 331 330 330 330 330 330 330 329 329 328 327 327 327 327 327 327 327 327 326 325 324 323 323 323 324 324 324 324 324 324 323 323 324 324 324 324 324 323 323 322 322 322 321 321 321 320 321 320 319 318 318 312 309 308 308 311 314 318 322 327 340 344 345 345 345 345 345 345 345 346 347 347
313 314 314 316 317 326 329 329 329 330 330 330 330 329 329 329 328 328 328 327 327 327 326 326 325 325 325 325 325 324 324 324 325 324 323 323 323 323 323 323 322 322 322 323 323 323 323 323 323 322 322 322 321 320 320 320 319 319 319 318 317 317 316 313 314 308 309 310 313 318 322 324 328 340 344 345 345 345 345 344 344 344 344 345 345
312 312 312 313 314 317 325 328 328 327 327 328 328 327 328 327 326 326 326 326 326 326 325 324 324 323 322 322 322 322 322 323 323 323 322 322 321 322 322 322 321 321 321 321 321 321 321 321 320 320 321 319 319 319 319 318 318 317 317 315 315 315 314 306 307 306 307 311 311 314 318 319 329 335 339 341 343 344 343 343 344 344 344 344 344
311 311 311 310 311 314 318 324 327 327 327 327 326 326 326 325 325 325 325 324 325 325 325 324 324 322 321 320 320 319 319 320 321 321 320 320 319 320 320 320 320 320 320 320 319 320 320 319 318 318 318 317 318 318 317 317 316 316 314 314 313 313 312 308 302 302 304 307 308 311 311 317 327 331 333 335 336 337 337 337 337 337 338 340 341
310 310 310 309 308 309 313 315 319 324 324 325 325 324 324 324 324 324 323 323 323 323 322 322 321 321 320 319 318 316 315 316 318 319 318 317 317 318 318 318 318 318 319 318 318 318 318 317 316 316 315 315 316 316 316 315 315 313 312 311 311 311 311 307 301 301 303 308 307 307 309 315 323 327 329 331 331 331 331 331 331 332 332 333 334
308 308 309 308 308 308 310 311 313 315 314 320 322 323 323 323 322 322 322 321 321 320 319 318 319 319 318 317 316 314 314 313 313 315 316 315 315 316 317 317 317 317 317 317 317 317 316 315 315 314 313 313 313 314 314 313 313 311 311 310 309 309 309 306 299 300 301 307 303 306 309 319 322 324 326 327 328 328 328 328 329 329 330 331 332
306 307 308 307 307 306 308 306 307 307 309 310 311 318 321 322 321 321 320 320 320 318 317 315 315 315 314 313 312 312 311 311 311 312 313 312 312 312 314 315 315 316 316 315 315 315 314 314 313 312 311 310 310 310 311 311 310 309 309 308 308 307 306 302 298 299 300 300 303 300 308 318 320 324 325 326 326 327 327 326 327 328 328 330 331
304 305 306 305 305 305 305 304 304 304 305 306 308 309 318 319 319 319 319 318 317 317 316 314 312 310 310 309 309 306 306 305 307 306 309 310 310 310 311 312 313 314 314 313 313 313 312 312 311 311 310 308 308 307 308 308 308 308 307 308 306 304 297 297 297 298 298 300 305 299 312 316 319 323 324 325 325 324 324 324 324 325 325 325 326
302 303 304 304 303 304 304 302 302 302 303 304 305 305 311 316 316 316 316 315 315 314 313 312 310 307 306 306 303 296 296 296 298 299 306 303 308 309 309 309 311 311 312 311 312 311 310 309 309 308 307 306 304 303 303 305 306 306 306 305 303 296 296 296 296 298 299 298 302 300 312 314 317 320 323 323 323 323 323 323 324 324 325 325 326
299 300 301 302 302 302 302 301 301 301 301 303 304 305 307 311 304 306 305 309 311 310 304 300 304 300 305 299 296 297 295 295 299 304 299 301 304 308 307 307 308 308 309 309 309 309 308 307 307 306 305 304 301 293 294 298 301 303 302 301 295 295 295 295 295 295 297 296 302 304 310 313 315 318 321 321 322 322 321 322 323 323 324 324 325
297 298 299 300 301 300 301 300 300 300 300 300 302 303 302 300 300 300 303 307 304 301 298 299 296 296 295 295 296 295 294 295 296 300 302 307 304 306 305 305 304 305 306 307 306 306 306 305 304 303 302 300 292 291 291 290 291 297 297 293 292 294 294 294 294 294 294 297 297 305 308 311 313 315 318 320 321 320 321 322 322 322 323 324 324
297 298 299 300 299 299 299 299 299 298 299 299 300 300 298 297 298 298 299 299 298 298 295 295 295 295 295 295 294 296 296 299 305 304 301 295 299 303 302 302 301 300 298 297 301 302 302 302 302 300 297 293 290 290 291 289 290 290 290 290 291 292 292 292 292 292 292 296 296 304 306 309 311 314 316 318 319 319 320 321 321 322 322 323 323
297 297 297 298 298 298 298 298 299 298 298 298 298 297 296 296 296 296 296 295 296 295 295 294 294 294 295 294 294 295 294 293 292 292 291 292 290 290 291 290 291 292 295 289 290 292 291 290 290 292 289 290 289 289 290 289 290 290 290 290 290 291 291 291 290 291 291 292 295 302 304 306 310 312 314 316 317 318 319 320 320 321 322 322 323
295 295 296 297 297 298 298 298 298 297 297 296 296 297 297 295 294 295 294 295 295 294 295 294 294 294 294 294 295 293 292 291 291 291 291 291 290 289 289 289 289 289 292 288 288 289 288 289 290 290 289 289 289 289 289 291 289 289 289 289 290 290 290 290 289 289 290 291 293 300 302 304 307 310 312 314 315 316 317 318 319 320 321 321 322
295 296 296 297 297 297 298 298 298 297 295 295 295 297 295 294 294 295 294 294 293 294 293 293 293 293 294 295 293 292 291 291 291 290 290 290 290 289 288 288 288 288 290 288 288 288 288 288 288 289 288 288 289 289 289 289 288 289 289 289 289 289 289 289 289 289 289 290 293 298 300 303 305 308 310 312 314 315 316 317 318 319 319 320 321
294 295 295 296 297 297 297 298 298 297 296 295 295 296 295 294 294 297 295 296 294 293 293 293 293 293 294 294 293 292 291 290 290 290 289 289 289 289 289 288 287 288 289 288 288 287 288 288 288 288 288 288 288 288 288 288 288 288 288 288 288 288 288 288 288 288 289 289 290 294 298 301 303 305 308 310 312 313 314 316 317 317 318 319 319
294 294 295 295 296 297 297 297 298 298 297 295 295 296 295 293 294 295 294 298 293 293 293 293 292 292 293 293 293 290 290 290 290 289 289 289 289 288 287 287 287 287 288 288 288 287 287 287 288 288 287 287 287 287 288 287 287 287 287 287 287 287 287 287 287 288 288 288 288 291 297 299 301 303 306 308 310 312 313 314 315 316 316 318 318
295 295 295 295 296 297 296 297 298 298 297 295 295 295 295 293 294 295 294 297 292 292 292 292 291 292 292 292 292 291 290 290 290 289 289 288 288 288 288 287 286 287 287 288 288 287 287 287 287 287 287 287 286 287 287 286 286 286 286 287 287 287 287 286 287 287 287 287 287 289 294 297 299 303 304 306 308 310 311 313 314 314 316 317 318
295 295 295 295 296 296 296 297 297 298 297 295 295 295 295 294 294 295 294 295 293 292 292 291 290 290 291 291 291 291 290 289 289 288 288 288 288 287 287 286 285 286 286 287 288 287 287 287 287 286 287 287 286 286 287 286 285 285 286 286 286 286 286 287 286 287 286 286 287 287 290 295 297 300 302 304 306 308 309 311 312 313 314 316 316
295 295 295 295 295 296 296 297 297 297 297 296 296 295 294 294 294 294 294 294 293 292 291 290 291 290 291 291 290 290 291 289 289 288 288 288 287 287 286 286 285 286 287 286 287 287 287 287 287 287 287 286 286 285 287 285 284 285 285 285 286 286 286 286 286 286 286 286 286 286 287 290 295 297 300 302 305 306 308 308 309 310 312 314 314
297 296 296 295 295 296 296 296 296 297 296 295 295 295 295 294 294 293 294 294 292 291 290 290 290 290 290 290 290 290 291 289 288 289 290 287 287 287 286 286 286 286 287 287 286 285 286 286 286 287 287 285 285 285 286 285 284 284 284 285 285 285 285 285 285 285 286 286 286 286 286 289 289 294 296 299 301 304 306 307 307 309 310 311 312
297 296 295 295 296 296 297 296 296 296 296 295 295 294 294 294 294 293 294 293 292 291 291 290 290 290 290 289 290 290 289 289 289 288 288 287 287 286 286 285 285 286 286 286 285 285 285 285 285 285 288 285 284 284 284 284 284 284 284 284 284 285 285 285 285 285 285 285 285 286 286 286 287 288 290 296 298 301 305 306 306 307 308 310 310
297 294 294 295 295 296 297 296 296 295 296 295 295 294 294 294 293 292 292 292 291 291 290 290 290 290 289 289 290 290 289 289 288 288 287 287 286 285 285 285 285 286 285 285 285 285 285 285 285 284 283 283 283 285 284 283 283 283 284 285 284 285 285 285 285 285 285 285 285 285 286 286 287 288 290 289 294 297 301 304 305 306 308 308 307
297 296 295 295 294 295 296 295 296 295 295 295 294 294 294 293 293 294 292 292 291 290 290 290 290 289 289 288 289 289 289 288 287 287 287 286 286 285 285 285 285 285 285 285 285 285 284 285 285 283 282 282 284 282 283 282 283 283 284 284 284 285 285 284 284 284 284 285 285 285 286 286 287 288 293 289 290 292 299 302 302 305 305 303 304
298 296 295 294 294 294 296 295 295 295 295 295 294 293 293 293 292 292 292 291 291 290 289 289 289 289 288 288 289 289 288 288 287 287 286 285 285 285 284 285 285 284 284 284 284 285 284 285 284 285 283 281 282 282 282 282 283 283 283 283 284 284 284 284 284 284 286 284 284 284 285 286 288 292 288 288 290 290 295 299 301 303 302 300 302
298 297 295 295 294 294 295 295 295 295 295 295 294 293 293 292 291 291 292 290 290 289 289 289 289 289 288 288 288 289 288 287 287 286 285 285 285 285 284 285 285 284 283 283 283 283 283 283 282 283 283 282 281 281 282 282 283 283 283 283 283 283 283 283 284 288 284 283 283 284 286 287 286 287 288 288 288 288 289 293 297 298 297 298 301
298 296 295 295 294 294 295 295 294 294 294 294 293 292 291 291 289 290 290 289 289 288 288 288 288 288 288 288 288 288 288 287 287 286 285 286 284 284 284 284 284 283 283 283 283 284 283 282 282 281 283 282 281 282 282 282 282 282 282 282 283 283 283 283 285 283 282 283 286 289 286 284 285 286 286 285 285 285 287 288 287 287 288 296 299
297 296 295 294 294 293 294 294 294 294 294 293 292 291 290 290 289 288 288 289 288 288 288 288 288 288 288 288 288 287 287 287 286 286 286 285 284 284 284 284 284 283 283 282 282 282 281 281 281 281 281 283 284 283 282 281 281 280 282 282 282 282 281 283 282 282 285 283 283 284 282 283 282 282 283 283 284 285 285 285 287 285 288 292 296
296 294 294 293 293 293 293 292 293 293 293 292 291 291 290 289 288 289 290 289 288 288 288 287 287 288 288 288 288 287 287 287 286 286 285 286 284 284 284 283 283 283 283 283 282 282 281 281 283 284 281 280 280 280 281 281 279 279 280 280 281 281 283 283 282 282 282 281 281 281 282 282 281 282 283 284 284 284 284 285 285 286 287 286 287
295 294 293 293 293 293 293 293 293 293 293 292 292 292 291 291 290 290 290 289 289 288 288 287 288 288 288 288 288 287 287 286 286 285 285 285 284 284 284 283 283 283 283 283 282 285 283 281 281 280 281 280 280 281 282 279 277 277 277 278 278 280 282 281 282 280 282 282 282 281 281 282 282 283 283 283 283 283 283 284 284 286 285 285 285
296 294 294 293 292 292 293 293 293 292 293 293 292 292 292 291 291 290 290 288 288 289 288 288 288 287 288 288 287 287 287 286 286 286 285 284 284 284 284 283 283 284 283 282 282 282 281 281 281 280 279 280 280 282 280 280 277 278 278 278 275 276 280 278 279 281 282 281 281 281 283 281 282 281 282 282 282 282 283 284 284 284 284 284 285
295 293 293 293 293 293 292 292 292 292 292 292 293 292 292 290 288 289 288 288 287 288 287 286 286 286 287 287 287 287 287 286 285 285 285 284 284 284 283 283 283 284 282 282 281 281 280 280 280 281 280 278 278 279 282 279 279 278 275 277 275 276 275 275 277 280 281 279 280 281 281 281 281 281 282 282 282 282 283 283 283 283 284 284 285
295 294 293 293 293 292 292 292 292 292 292 292 292 291 290 288 287 287 287 286 286 285 285 284 286 286 287 286 287 286 286 286 285 285 285 284 283 283 283 283 283 282 282 281 281 281 281 280 281 281 279 278 278 277 279 280 279 280 278 276 275 274 274 274 277 277 277 279 280 280 281 281 280 280 281 282 282 282 283 282 283 283 283 284 284
295 295 294 294 293 292 292 292 292 292 292 292 292 291 290 289 287 286 285 286 285 285 285 286 285 286 286 287 286 286 286 286 285 285 285 284 283 283 283 282 282 282 282 281 281 280 280 280 280 281 279 279 278 278 277 280 280 282 279 278 277 274 274 276 276 274 278 281 280 279 279 279 279 280 281 280 281 281 283 283 283 283 283 283 283
296 295 294 293 293 292 292 292 292 291 292 291 291 291 290 289 288 288 288 287 287 287 287 287 287 287 286 286 286 286 286 286 285 285 284 284 283 283 282 282 282 282 282 281 280 280 280 280 281 279 279 282 279 277 278 277 277 278 280 279 279 280 278 277 274 275 274 276 276 278 278 279 279 279 280 280 280 280 281 282 282 282 282 282 283
295 294 293 293 292 292 292 291 292 291 291 291 291 291 290 289 288 288 288 288 288 287 287 287 287 287 286 286 286 285 285 286 285 284 284 284 283 282 282 282 282 281 282 281 281 280 280 281 281 280 280 281 279 279 277 277 276 278 280 278 279 279 277 277 277 276 274 273 276 279 279 277 278 279 280 279 279 279 280 280 281 281 281 281 282
293 293 293 293 293 292 292 291 291 291 291 290 291 290 291 290 289 288 288 288 288 287 287 287 286 286 286 285 285 285 285 285 285 284 284 284 284 283 282 281 281 281 282 281 280 280 280 280 280 279 280 279 279 279 277 277 277 277 276 276 276 276 276 276 276 276 275 273 273 274 276 278 278 278 279 279 279 280 280 280 281 281 282 282 281
293 293 292 292 292 292 291 291 291 291 291 290 291 290 290 290 289 288 288 287 287 285 286 286 286 285 285 285 285 284 284 284 284 284 283 283 283 282 282 281 281 281 282 280 280 280 280 280 280 279 279 279 279 279 278 277 278 277 277 277 276 276 276 275 275 274 275 275 273 274 275 275 274 276 279 279 279 279 279 280 280 280 280 280 280
291 291 292 292 292 291 291 290 291 291 290 290 290 290 290 289 289 289 288 287 286 285 285 285 285 284 285 284 284 284 284 284 283 283 283 283 283 282 282 281 281 282 282 280 280 280 280 279 279 279 279 278 278 279 281 278 278 277 277 276 276 276 275 275 274 275 274 273 273 274 274 275 275 274 276 278 279 279 279 279 279 279 279 279 280
Wind_Speed
3 5 2 4 8 8 7 8 9 10 12 13 13 13 13 12 12 11 11 11 11 11 11 10 10 10 9 10 10 11 11 11 11 10 11 10 10 10 10 10 10 10 8 8 9 10 9 8 9 10 10 10 11 11 11 11 11 11 11 11 12 12 12 12 12 12 12 11 12 12 11 10 10 8 7 5 5 5 5 4 4 2 3 4 8
7 4 3 1 7 10 9 9 9 9 9 10 11 11 11 11 12 11 11 11 11 12 12 12 12 11 11 12 11 13 12 12 12 12 11 13 12 11 12 12 11 10 10 9 10 10 11 11 10 9 11 12 12 12 12 12 13 12 13 14 14 13 12 12 12 12 12 12 11 12 10 10 10 8 5 6 7 6 5 5 6 3 2 6 7
6 5 3 2 5 9 10 11 10 10 9 10 10 10 10 11 11 11 11 11 12 12 11 12 13 12 13 13 13 13 13 13 12 12 13 13 13 13 12 12 12 12 12 12 11 11 9 12 12 13 14 13 12 13 13 13 12 13 13 13 12 11 11 11 11 12 12 12 11 10 9 10 9 10 7 7 6 6 6 6 7 6 5 8 7
7 5 3 4 6 9 11 11 10 10 10 10 11 10 9 10 9 9 10 12 12 12 12 12 12 12 12 12 13 13 13 13 13 13 12 12 12 11 11 11 13 13 11 11 12 11 10 13 14 14 14 13 13 13 13 13 12 12 11 11 10 10 10 10 11 11 11 11 11 8 5 5 5 5 9 6 7 9 7 7 7 8 9 8 9
7 5 3 3 3 8 12 12 12 12 12 12 11 11 10 9 9 9 9 10 10 10 10 10 10 10 9 9 9 9 10 11 11 11 11 11 11 11 10 10 11 12 12 12 12 10 10 12 14 14 13 13 12 12 12 12 11 11 11 10 10 10 10 10 10 11 10 9 9 7 5 5 4 6 6 8 9 9 7 7 7 8 8 8 9
6 4 4 4 3 5 12 12 12 13 12 12 13 11 10 10 9 8 8 9 10 10 10 10 10 9 8 8 8 8 9 10 10 12 12 11 11 11 11 10 11 10 10 12 13 15 14 13 11 13 14 13 13 13 12 11 11 11 11 11 11 11 11 10 10 10 9 7 7 5 5 5 4 4 7 6 9 9 7 8 9 8 8 10 10
7 4 4 4 3 4 10 12 13 13 13 13 13 12 12 11 11 10 10 10 10 9 10 9 9 9 9 9 9 8 9 10 10 11 12 12 12 12 11 10 11 12 11 11 13 13 14 13 13 13 13 12 12 12 11 11 11 11 11 11 11 12 12 12 11 11 10 5 4 3 4 4 4 3 6 7 7 9 9 8 8 9 9 9 10
5 4 4 4 3 5 10 12 13 13 14 14 13 13 13 12 11 11 11 11 11 10 10 10 9 10 9 9 9 9 8 8 10 11 12 12 12 13 12 11 11 11 12 12 12 12 12 12 12 12 12 12 11 11 10 10 11 11 11 12 12 13 13 13 13 12 11 4 3 3 4 4 4 4 6 8 8 8 8 7 8 8 9 10 8
6 5 5 4 4 6 9 12 13 13 14 14 14 13 13 12 12 12 12 12 12 12 11 11 11 11 11 11 10 10 10 10 10 11 11 12 12 12 12 11 11 11 11 11 11 12 12 12 13 12 12 11 11 10 10 10 11 12 12 12 13 13 14 14 14 12 7 5 5 4 4 4 4 4 7 6 7 5 7 6 5 7 8 8 6
6 5 5 4 4 8 10 12 13 13 14 14 14 14 14 13 13 13 13 13 13 13 13 13 12 12 13 13 12 12 12 12 11 11 11 11 11 12 12 11 11 11 11 11 11 12 12 12 12 12 12 11 11 11 11 11 11 12 13 13 14 14 14 14 14 9 6 6 7 5 5 8 4 4 7 8 6 5 6 4 3 3 3 5 7
6 6 5 5 5 10 13 13 14 14 15 15 15 15 15 15 14 14 14 14 14 13 13 13 12 13 13 13 12 12 12 12 12 12 12 12 12 12 12 12 12 12 11 12 11 12 12 12 12 12 12 12 12 11 11 12 12 12 13 14 14 15 15 15 11 6 6 7 7 6 7 11 5 4 10 8 5 6 6 3 3 3 5 7 8
7 5 5 4 7 11 13 14 15 15 15 15 15 15 15 14 14 14 14 14 14 13 13 13 13 13 13 13 13 13 13 13 12 12 12 12 12 12 12 12 12 12 12 12 12 12 13 13 13 13 13 12 12 12 13 13 13 13 13 14 14 14 15 14 8 6 6 7 6 6 6 6 5 6 11 8 7 4 4 5 5 6 8 8 9
7 6 5 4 5 10 13 15 14 14 15 15 15 14 14 14 14 14 14 14 14 13 13 13 13 13 13 13 13 13 13 13 13 13 12 12 12 12 12 12 13 13 13 13 13 13 13 13 13 13 13 13 13 13 13 13 14 14 14 14 15 15 15 13 6 6 6 6 5 7 6 5 5 9 9 8 7 8 8 7 7 8 9 9 9
7 6 4 4 4 8 11 13 13 13 14 14 14 14 14 14 14 14 14 14 13 14 13 14 14 14 14 13 13 13 13 13 13 13 13 12 13 13 13 13 13 13 13 13 13 13 14 14 14 14 13 13 13 13 13 14 14 15 16 16 16 16 15 8 8 6 6 7 6 7 6 6 6 12 12 10 10 9 9 9 9 10 10 10 10
8 6 5 4 4 4 9 11 11 13 13 13 14 14 14 14 14 14 14 14 14 14 14 14 14 14 14 14 13 13 13 13 13 13 13 13 13 13 13 13 13 13 13 13 13 13 13 14 14 14 14 13 14 14 14 14 15 16 16 17 17 16 16 6 6 6 7 7 6 7 7 6 13 13 13 13 13 13 13 14 14 13 13 12 12
7 7 4 4 3 4 4 8 10 11 11 13 13 13 13 13 13 14 14 14 15 15 15 15 15 15 14 14 14 14 13 13 13 13 13 13 13 13 13 13 13 13 13 13 13 13 14 14 14 14 14 14 14 14 14 14 15 16 16 16 17 17 16 9 6 6 6 6 6 6 7 6 15 14 13 14 13 13 14 14 14 13 13 13 13
8 7 6 5 4 4 4 4 6 10 10 11 11 13 13 13 13 14 14 14 15 15 15 15 15 15 15 14 14 14 14 13 13 13 13 13 13 13 13 13 13 13 13 13 14 14 14 14 14 14 14 14 14 14 14 15 15 16 16 16 16 16 15 11 6 6 6 6 6 6 7 6 13 14 14 14 13 13 13 13 13 13 13 12 12
6 7 7 6 5 4 4 4 4 5 5 8 10 12 12 13 13 13 14 15 15 16 16 16 16 15 15 14 14 13 14 13 13 13 13 13 13 13 13 13 13 13 13 13 14 14 14 14 14 14 14 14 14 14 14 14 15 15 15 16 16 15 14 10 6 6 7 7 7 6 6 11 16 14 14 14 14 13 13 13 13 13 13 13 12
6 6 5 5 5 4 4 3 4 4 5 5 4 7 12 12 13 13 14 15 15 16 16 16 15 15 14 14 13 13 12 13 13 13 12 12 12 12 13 13 13 13 13 14 14 14 14 14 14 14 14 14 14 14 14 14 14 14 14 14 13 13 13 8 6 6 6 6 6 7 7 16 15 15 14 14 14 14 14 14 13 13 13 13 13
5 6 6 6 5 5 4 4 3 4 4 5 5 5 8 10 12 13 14 15 15 16 16 15 14 13 13 12 11 8 9 7 11 8 11 11 11 8 12 14 14 14 14 14 14 14 14 15 15 15 15 15 15 14 14 14 14 14 14 13 11 9 7 6 6 7 6 6 6 6 10 16 15 14 14 14 13 13 13 13 13 13 13 13 13
4 6 7 7 6 6 6 5 4 4 4 5 5 5 6 10 10 11 13 14 14 15 15 14 12 12 10 10 9 6 5 5 5 5 7 5 8 10 12 13 13 13 13 13 13 13 13 14 14 14 15 15 14 13 13 14 15 15 14 13 10 6 6 6 6 6 6 7 7 7 16 16 15 15 14 14 14 14 14 14 14 13 13 13 13
8 7 6 7 7 7 7 6 5 5 5 5 4 5 4 6 5 5 5 8 10 10 9 7 9 7 9 8 6 5 6 4 4 6 5 5 6 10 10 12 12 12 11 12 12 12 12 13 13 14 14 13 13 7 7 10 13 14 13 12 7 6 6 6 6 6 6 6 7 9 18 17 16 16 15 14 14 14 14 14 14 14 14 14 14
8 8 8 10 9 8 7 8 8 7 6 5 5 5 5 5 5 4 4 6 6 6 6 6 6 7 6 6 6 6 5 4 4 4 4 7 6 9 10 11 11 11 11 12 12 12 12 13 14 13 13 12 7 6 6 6 7 10 9 7 6 6 6 6 6 6 6 6 6 13 17 17 16 16 15 15 15 15 15 14 14 14 14 14 14
12 12 11 8 9 10 11 10 9 9 8 7 6 6 5 5 5 5 4 5 5 5 5 6 6 6 7 6 6 5 5 6 7 9 7 5 6 8 10 9 10 10 10 7 9 11 11 12 13 12 8 5 5 6 6 6 6 6 6 6 6 6 6 6 6 6 6 6 6 16 16 16 16 16 15 15 15 15 16 16 15 15 14 13 13
11 7 5 10 11 11 10 10 9 9 9 7 7 7 6 6 6 6 6 6 5 5 5 6 6 7 6 6 6 5 6 6 6 6 6 6 5 4 4 4 3 4 5 4 4 4 4 5 4 6 5 5 5 5 5 5 5 5 5 5 5 5 5 6 6 6 6 6 7 16 16 16 16 16 15 15 14 14 15 15 16 15 14 14 14
5 9 12 11 13 12 12 10 10 10 10 9 9 8 8 7 7 6 6 6 6 5 5 6 6 7 6 7 7 7 7 6 6 6 6 6 6 5 4 3 3 3 2 5 4 3 3 4 4 5 5 4 5 4 4 3 5 5 5 5 5 5 6 6 5 5 5 5 6 15 16 16 15 15 15 15 14 14 14 14 14 15 15 14 14
11 13 12 11 11 11 11 10 11 10 10 8 7 7 8 7 7 7 7 6 6 6 6 6 6 6 7 7 8 8 7 6 7 6 6 6 6 6 5 4 3 4 2 4 4 3 3 4 4 4 4 4 4 4 4 4 3 4 4 4 4 5 5 6 6 6 5 5 6 13 14 15 15 15 15 15 14 14 14 14 14 14 14 14 13
8 11 11 11 12 14 13 12 11 11 9 9 8 8 7 7 8 7 6 7 7 7 6 6 6 7 7 7 7 7 8 8 7 6 6 5 5 5 5 4 4 3 3 4 5 4 5 4 4 4 4 4 4 4 4 4 4 4 4 4 4 4 4 4 3 4 5 6 5 8 13 14 14 14 15 14 14 14 14 14 13 13 14 14 14
12 12 11 11 13 13 13 14 12 12 10 9 10 8 7 7 7 7 7 7 6 7 7 6 7 6 6 7 7 8 7 7 7 7 6 6 5 5 5 4 4 3 3 3 4 4 4 4 5 4 4 5 4 5 4 4 4 4 4 4 4 4 4 5 4 4 4 4 4 6 12 13 14 14 14 14 14 14 14 14 14 14 14 14 14
17 13 12 13 11 13 15 16 15 13 11 10 9 9 9 9 9 9 8 7 7 7 5 6 6 7 7 7 7 7 8 8 8 7 7 7 6 5 5 4 5 3 4 5 3 4 5 4 4 4 5 5 5 5 4 4 4 3 4 4 4 4 4 4 5 5 4 5 5 5 9 11 12 13 13 13 13 13 14 14 15 15 15 15 15
11 13 13 12 12 13 14 14 13 12 10 11 10 10 9 10 10 8 7 8 7 7 6 6 6 6 7 8 7 7 7 7 7 8 6 7 6 6 6 4 5 3 3 4 3 4 4 5 4 5 5 5 5 4 5 5 5 5 4 5 5 5 5 5 4 4 4 5 5 4 5 10 12 13 13 13 13 13 13 14 15 15 15 16 16
14 16 14 11 11 15 15 14 14 12 12 11 10 10 11 10 9 8 9 8 8 7 7 7 7 6 6 7 7 8 7 7 7 7 8 7 7 7 6 5 5 3 4 4 4 3 5 4 4 4 4 4 4 5 4 5 5 5 6 6 6 6 6 6 5 5 5 4 5 5 5 6 10 13 13 14 14 15 14 15 15 15 15 15 16
14 14 12 12 15 15 14 15 13 13 14 14 12 10 9 9 9 9 8 8 8 7 8 8 7 7 6 7 8 8 7 8 7 8 8 7 7 7 6 5 5 5 4 4 4 3 4 4 5 3 5 5 5 6 5 4 5 6 6 6 6 7 6 6 6 5 5 5 5 5 5 5 5 8 10 12 13 14 14 15 14 15 15 15 15
12 9 11 15 13 10 11 11 13 15 15 12 11 10 10 9 8 8 8 8 8 8 8 7 7 7 7 7 8 8 7 7 8 7 7 7 7 7 7 6 6 5 4 4 5 4 5 5 4 5 5 6 6 5 6 7 6 5 6 6 6 6 7 7 6 6 5 5 5 4 5 4 4 3 4 8 10 12 14 15 14 14 14 15 15
8 9 16 19 15 13 11 11 14 14 14 13 13 12 10 10 9 9 8 9 8 9 8 7 7 7 7 7 8 7 7 7 7 8 8 7 7 7 6 6 6 5 5 4 5 4 5 5 3 5 3 5 4 4 5 5 6 7 7 7 7 7 7 6 6 6 6 5 5 4 4 5 5 5 4 4 6 9 12 14 15 15 14 14 14
16 17 15 11 14 13 14 13 14 15 15 15 13 12 11 10 9 9 8 8 8 8 8 8 7 7 7 7 7 7 7 7 7 7 8 7 7 7 6 6 5 5 5 4 4 5 4 5 3 4 5 5 5 5 5 5 5 7 6 7 7 7 7 6 6 6 5 4 4 4 4 4 4 4 4 4 5 5 11 12 15 15 15 15 17
18 14 14 14 15 15 15 15 17 18 16 15 13 10 10 10 10 10 9 8 9 8 7 7 7 7 7 7 8 8 7 7 7 6 7 7 6 6 6 6 5 6 5 4 5 3 3 5 4 4 5 4 5 4 4 4 6 6 7 7 7 7 7 5 5 6 4 3 3 3 3 4 4 4 3 3 4 4 6 12 13 14 14 15 16
15 15 15 17 19 17 16 16 15 15 14 14 13 11 10 8 7 7 7 8 8 7 7 7 7 7 7 8 8 8 8 8 7 6 6 6 6 7 6 6 6 6 6 5 5 3 3 5 5 4 5 4 3 3 4 4 4 6 7 8 9 7 6 5 5 3 4 4 2 3 3 4 4 4 3 3 3 4 4 6 9 10 10 13 16
13 16 15 15 12 13 12 14 14 14 13 12 10 8 7 5 4 6 6 7 6 6 7 7 7 7 8 8 8 8 8 8 8 7 7 7 7 6 6 5 6 6 6 5 5 4 3 3 5 4 3 3 1 0 2 4 5 5 6 8 7 8 5 4 3 3 3 2 1 2 3 5 4 3 4 3 3 4 4 5 6 7 8 13 16
12 12 14 13 14 13 12 12 13 13 11 10 9 8 7 8 9 5 5 7 7 7 7 8 7 7 8 8 8 8 8 8 8 7 7 7 7 7 7 5 6 6 7 6 5 5 5 5 4 4 3 2 0 1 0 3 3 4 6 5 7 7 4 3 2 2 0 1 2 2 4 4 4 3 3 3 4 4 5 5 6 6 6 8 14
11 12 14 15 16 17 16 17 14 14 13 13 12 12 12 9 7 11 13 10 10 7 7 7 8 8 8 9 9 8 8 8 7 8 8 7 6 6 7 5 5 6 6 6 5 5 4 4 5 3 4 3 1 0 1 1 2 3 2 3 6 5 3 1 1 2 2 4 2 2 2 2 3 4 4 3 4 4 4 5 5 5 6 6 7
12 14 17 19 17 16 18 16 13 14 15 15 14 13 13 15 15 15 12 10 10 11 11 10 10 8 9 9 8 8 8 8 8 7 7 8 8 7 7 7 7 6 5 4 5 4 4 4 5 4 1 3 1 0 3 2 4 2 6 5 4 7 2 2 2 3 8 5 3 1 1 2 4 4 3 4 4 4 4 4 4 4 5 5 5
17 19 19 16 15 16 16 15 15 15 15 14 13 14 12 10 10 8 11 7 6 6 6 6 6 8 8 9 8 8 8 8 8 8 8 8 8 8 8 7 7 7 7 6 5 5 5 5 4 6 5 2 1 1 3 4 1 3 2 1 4 7 5 3 3 7 7 3 1 2 3 2 4 3 3 3 3 3 3 4 4 4 5 5 5
11 11 12 17 15 15 15 16 15 15 14 14 14 11 9 6 4 5 5 6 5 5 5 5 6 6 8 8 8 9 9 8 8 8 7 7 8 9 7 7 8 7 7 8 7 6 5 4 4 4 6 4 2 0 1 3 2 3 6 1 2 1 4 2 7 9 2 2 0 3 2 3 3 3 3 2 3 3 4 4 4 4 5 4 4
13 16 16 17 14 18 17 16 15 15 14 14 14 10 9 7 6 6 5 5 4 5 5 6 8 8 7 9 11 9 9 9 9 8 8 9 7 7 8 8 8 7 7 7 7 7 6 5 5 5 4 6 4 2 1 2 3 2 3 2 4 4 1 3 7 7 1 5 3 2 3 3 3 3 3 3 3 3 4 4 5 4 4 4 4
15 16 16 16 14 14 14 15 12 12 13 13 14 12 13 13 11 10 10 10 9 10 15 17 13 14 14 7 6 9 9 8 8 8 8 7 8 8 7 8 8 7 7 7 6 5 5 5 5 5 5 4 5 4 2 1 2 1 1 2 2 2 4 4 5 6 3 7 4 1 1 3 2 4 4 3 3 3 4 6 5 5 4 4 5
16 12 11 13 13 13 14 15 14 13 12 13 14 12 12 12 16 17 15 16 15 13 9 6 10 8 6 10 9 8 9 10 9 9 8 8 7 7 8 8 7 7 6 7 7 7 6 5 4 4 5 6 5 4 5 3 1 1 1 1 1 1 1 2 3 4 11 3 3 0 2 3 4 3 3 3 3 4 5 5 5 5 4 4 5
12 10 11 10 14 15 15 14 11 12 12 13 15 15 15 14 14 13 12 13 15 13 11 10 7 7 9 10 9 9 9 9 10 9 9 8 8 8 7 7 8 7 7 7 8 6 6 4 5 4 4 5 6 7 5 5 5 2 1 1 0 0 1 2 1 3 4 10 17 8 5 2 0 3 6 5 3 4 6 5 5 5 5 4 6
9 13 14 14 13 12 13 12 13 13 13 15 16 16 14 15 15 13 13 12 10 7 7 7 8 9 10 8 9 9 9 8 9 10 9 8 8 8 8 8 8 8 7 7 6 7 8 8 7 6 6 5 5 5 6 5 5 5 3 0 1 1 1 2 2 3 5 3 10 9 16 10 4 2 3 2 4 5 6 7 6 4 3 6 5
10 9 9 10 12 12 14 16 15 13 13 15 16 16 15 13 14 15 16 12 9 6 8 9 9 9 11 10 9 9 9 9 9 9 9 8 8 8 8 9 9 8 7 7 7 7 7 7 7 6 6 6 4 6 5 5 5 4 4 5 3 1 0 2 2 3 3 6 10 7 9 13 17 11 14 13 4 4 5 5 4 4 5 5 5
7 10 11 12 12 13 14 15 15 12 13 15 16 17 15 14 15 16 17 15 13 10 10 10 9 10 12 12 11 10 9 10 8 8 10 9 9 8 9 8 7 7 7 8 8 8 8 7 6 5 6 7 6 6 4 4 4 5 4 5 5 5 5 4 3 2 3 4 5 8 8 7 9 14 8 8 11 11 8 7 7 5 5 4 5
Wind_Direction
202 148 198 241 133 131 129 124 122 120 119 118 119 118 115 115 115 117 118 117 114 111 111 113 108 104 107 111 110 103 94 88 88 87 84 74 72 71 72 66 63 58 50 62 69 65 70 64 59 66 61 58 58 62 59 54 49 46 44 44 45 41 34 24 13 7 3 358 354 354 352 348 344 341 353 42 41 56 64 41 44 33 16 339 26
174 176 165 192 160 146 142 135 127 131 127 124 118 114 113 112 113 115 115 112 111 111 111 111 106 106 111 109 108 103 101 98 94 87 82 79 74 73 71 72 69 68 66 63 66 70 72 70 70 63 63 57 53 54 57 53 51 49 49 46 42 38 32 22 8 359 359 356 356 358 353 352 349 343 353 56 29 63 63 48 33 33 339 6 23
150 152 163 175 146 147 151 146 141 137 130 127 119 114 117 113 113 111 109 108 108 108 109 107 105 108 106 103 107 105 102 95 90 85 78 73 69 67 69 72 67 67 67 65 68 66 70 80 72 68 63 57 55 55 55 53 47 47 46 44 40 35 28 20 7 358 357 357 359 5 354 352 351 351 62 77 67 46 62 46 40 23 3 14 20
139 157 154 152 150 146 148 146 142 139 137 135 118 120 124 123 125 117 115 110 104 105 106 102 102 102 100 100 97 92 90 85 79 75 70 71 68 64 65 67 64 62 65 71 71 74 75 70 65 60 55 50 49 50 48 51 50 47 45 45 38 32 26 17 7 1 1 1 359 8 8 349 351 351 81 81 74 62 53 44 32 28 23 20 22
144 157 149 131 148 145 149 143 140 142 141 141 132 131 125 127 122 124 118 111 104 96 96 99 96 92 91 90 90 89 81 75 72 69 66 62 62 61 60 59 53 49 57 64 64 65 68 67 64 61 54 45 41 42 41 40 40 41 38 35 33 29 21 15 9 2 5 7 3 5 3 356 338 309 19 80 78 71 64 45 37 32 24 18 16
148 155 145 132 144 145 144 143 139 143 145 141 135 131 130 129 125 124 127 124 110 106 97 95 94 91 90 88 89 87 76 69 71 68 65 64 58 53 51 52 51 45 44 47 51 52 50 57 56 52 49 43 40 36 33 32 30 29 29 29 28 24 18 12 7 3 4 15 10 4 358 355 349 323 6 30 82 75 59 42 31 26 20 15 16
145 156 145 142 135 169 145 142 140 142 144 137 133 133 134 135 132 127 134 120 114 110 110 106 103 97 93 92 91 93 86 84 78 76 71 70 67 60 55 57 54 50 56 54 53 56 55 54 53 51 50 43 39 35 32 30 27 26 23 22 20 18 14 11 7 0 1 23 10 1 353 345 341 347 353 12 81 79 60 47 32 18 17 19 15
137 151 152 145 156 157 141 142 143 142 140 137 136 132 126 125 129 131 130 124 125 128 120 115 115 115 111 107 108 102 98 94 86 81 77 74 72 66 62 58 55 52 51 51 51 52 55 53 55 54 51 45 38 33 31 30 25 21 20 16 14 12 10 7 5 1 359 5 6 357 347 347 345 355 348 37 53 55 67 54 37 21 12 16 7
151 158 148 147 164 161 147 143 146 143 140 138 134 128 127 127 130 131 131 130 127 122 120 122 123 120 115 111 109 107 104 96 91 84 78 76 74 73 70 64 57 55 56 56 55 53 52 51 50 50 49 44 39 34 30 28 26 20 17 14 11 8 6 4 3 360 355 351 349 350 349 348 355 346 333 19 54 64 73 61 42 23 10 7 6
156 155 146 147 165 154 150 155 149 144 139 137 136 136 138 139 138 136 135 132 130 127 126 125 121 115 112 109 105 103 99 94 90 84 81 80 78 77 75 71 66 60 57 57 55 52 49 50 49 46 44 41 37 34 32 30 27 20 15 12 7 5 3 1 1 357 351 342 342 349 349 357 353 349 336 355 61 80 84 94 67 13 1 5 10
158 159 150 150 170 160 163 157 153 149 148 146 146 146 145 144 143 140 138 136 133 131 130 126 120 117 113 109 106 102 96 93 89 84 81 79 77 75 74 72 70 65 61 58 56 53 50 48 46 45 41 38 35 35 35 33 29 23 18 14 8 4 2 358 2 350 346 343 341 343 347 351 352 338 338 356 33 99 94 71 41 19 14 9 11
159 159 156 156 172 170 166 160 159 156 152 150 149 147 145 144 143 141 138 136 135 132 127 123 120 116 113 111 108 103 99 95 92 90 86 82 79 76 74 71 69 66 64 61 58 56 54 50 48 46 44 42 40 39 38 35 31 28 23 20 15 9 3 359 1 350 345 344 343 341 342 347 340 328 343 355 4 70 89 61 36 22 13 8 8
159 159 160 166 171 177 167 165 161 157 154 151 148 146 144 143 142 140 137 136 134 131 127 123 120 116 113 111 109 105 103 100 99 95 91 88 85 81 77 74 69 66 63 61 57 54 52 50 47 46 47 48 47 44 39 36 33 28 26 24 23 20 15 10 3 359 353 349 345 345 347 344 339 335 6 3 3 20 27 24 20 20 16 16 10
153 157 160 167 171 173 169 166 161 157 154 151 148 147 146 145 143 141 139 137 135 132 129 125 121 118 115 112 109 107 104 101 98 95 92 89 85 83 80 76 73 69 67 63 59 55 53 52 47 46 48 48 46 41 40 38 34 31 30 31 29 25 22 13 8 4 360 357 354 356 359 353 347 9 18 18 18 24 27 23 20 23 17 18 17
150 154 157 162 177 175 170 162 160 158 156 154 151 150 149 147 145 143 140 139 136 133 129 126 123 120 117 114 111 109 105 102 96 93 92 89 88 87 85 80 77 74 72 69 66 62 60 57 54 52 51 50 45 42 41 39 37 34 33 31 28 26 23 16 13 9 8 5 2 2 357 352 354 8 15 21 24 30 29 26 25 22 19 15 17
149 152 143 153 166 173 159 162 159 158 157 154 152 152 151 149 147 146 143 141 138 134 129 126 123 120 117 113 110 108 106 103 101 96 92 91 91 90 88 84 81 79 77 75 70 69 67 63 60 57 53 49 47 45 41 39 38 36 34 31 27 24 22 24 14 15 9 8 3 4 353 344 354 5 10 15 16 17 19 16 13 11 7 6 7
154 151 150 162 159 152 149 152 159 155 153 153 155 155 152 151 151 149 146 142 139 134 131 128 125 121 116 111 107 104 103 103 101 98 93 91 90 88 88 86 82 79 79 76 73 72 71 69 65 61 56 52 48 46 43 39 38 36 34 30 26 22 20 22 19 14 7 10 9 359 349 341 358 4 7 9 10 12 13 11 8 5 0 359 358
159 157 163 167 162 155 146 152 150 147 148 149 153 154 154 154 154 151 149 145 141 137 133 130 126 121 117 114 111 107 103 100 98 96 90 84 83 84 84 82 80 78 77 74 73 72 71 69 67 63 59 55 51 48 46 43 39 36 32 28 24 19 17 21 21 10 9 8 8 356 345 356 1 3 4 5 6 7 8 7 5 2 357 355 356
166 170 166 170 173 155 154 140 143 147 146 147 151 156 154 155 155 153 151 148 143 139 134 129 124 123 121 117 112 107 101 96 94 95 92 83 76 72 77 76 74 73 72 69 67 66 65 63 61 59 56 52 48 43 42 42 40 36 31 28 23 17 13 17 15 11 9 5 4 358 340 1 360 0 2 5 6 6 6 4 1 360 357 354 351
176 178 178 188 172 164 160 159 160 167 160 155 153 147 151 152 155 155 153 149 145 141 137 131 124 119 119 116 110 103 97 92 89 81 83 77 72 73 74 72 69 67 64 63 60 57 55 53 52 52 51 49 43 37 33 35 33 29 27 23 23 20 17 11 7 6 4 0 3 350 348 360 358 357 359 2 3 5 4 1 357 355 352 349 347
197 198 188 188 182 174 172 167 183 177 173 160 151 146 154 155 157 156 153 150 147 143 138 131 124 121 117 117 112 110 106 97 89 86 72 65 58 70 76 75 73 72 72 71 69 65 60 55 51 49 48 44 36 30 25 25 25 25 22 20 20 20 15 14 7 1 1 355 355 343 352 355 357 355 354 356 358 358 358 357 356 353 351 348 346
194 197 204 189 182 189 179 178 180 186 179 168 158 156 163 152 155 154 152 151 146 139 133 136 135 133 127 119 120 118 111 100 88 75 66 61 67 74 81 83 81 79 80 81 79 75 70 65 60 56 50 43 37 30 21 17 16 18 17 17 18 18 14 12 9 2 359 351 355 340 351 351 353 352 351 351 352 354 354 352 353 351 348 347 345
203 202 204 196 191 182 181 182 186 182 178 175 164 166 158 150 157 155 159 150 146 141 144 138 138 138 132 126 117 112 108 98 92 89 85 83 81 86 90 88 83 80 81 83 82 76 71 67 62 57 50 44 36 30 24 17 10 10 11 12 13 10 10 11 8 4 356 349 355 343 351 349 349 348 348 349 348 350 349 349 350 349 348 346 344
203 198 194 190 187 188 188 185 182 181 176 176 168 166 162 158 164 168 160 157 154 152 143 142 143 141 136 126 118 113 106 109 106 98 87 81 76 76 76 79 85 80 74 63 65 69 66 60 60 55 47 44 41 33 26 16 14 8 8 9 8 4 7 5 1 356 352 349 345 345 350 349 348 346 347 347 347 347 345 346 348 347 347 347 343
198 179 180 195 193 190 184 188 181 181 177 175 170 172 170 162 172 174 165 165 163 157 151 145 148 143 136 127 128 120 114 112 114 112 111 106 99 90 87 86 87 86 89 84 77 67 66 61 50 51 48 44 41 32 29 20 11 5 6 1 1 0 0 360 354 350 347 344 338 344 348 348 346 346 347 347 347 346 346 346 344 345 345 345 344
170 185 199 192 196 192 187 184 181 183 182 176 176 170 163 172 176 178 167 172 167 166 157 153 153 150 140 138 132 124 127 128 129 127 126 125 120 124 125 123 107 105 100 99 85 81 69 67 63 56 45 47 44 35 29 31 10 3 360 359 356 354 354 349 347 343 341 338 332 342 345 346 346 347 347 347 347 348 348 347 345 345 346 346 347
194 205 193 196 191 192 188 179 185 182 184 177 168 169 177 177 173 174 166 178 172 165 168 164 162 153 146 148 143 141 139 139 137 139 139 139 137 140 138 133 123 107 102 103 89 78 76 68 65 63 56 47 39 30 23 22 22 7 360 354 351 346 345 340 339 337 334 335 329 338 342 344 345 346 347 346 349 350 349 349 350 350 350 349 350
200 204 195 194 188 193 187 180 186 183 182 177 174 179 178 174 178 176 179 176 169 175 175 174 164 159 153 156 146 146 147 145 149 147 152 140 144 141 138 126 121 114 107 97 92 71 66 62 66 55 53 50 45 28 25 18 10 12 359 348 341 340 333 328 323 324 325 328 330 330 339 342 343 345 346 348 350 350 350 352 353 353 354 353 352
208 203 197 194 196 189 184 187 185 186 181 176 182 182 178 177 177 181 182 179 178 180 176 170 169 163 159 159 153 149 149 149 153 155 146 145 143 137 132 130 123 126 112 85 90 86 67 64 59 58 54 47 40 30 24 13 7 5 2 339 335 333 331 327 326 326 326 324 325 323 334 337 339 343 346 349 349 351 353 355 354 355 354 354 354
210 198 193 201 190 186 189 190 186 184 180 176 185 183 184 182 185 186 183 177 181 175 172 176 174 162 164 165 160 155 158 158 155 154 148 148 143 137 129 131 121 129 111 99 103 96 91 71 63 56 51 39 37 18 21 4 360 354 352 339 330 327 319 317 323 328 325 327 327 325 328 331 333 339 343 344 348 351 354 354 355 356 354 353 354
197 202 201 198 189 185 194 190 186 182 177 184 184 188 183 189 188 183 181 182 174 168 176 175 172 172 167 163 159 158 157 157 154 154 149 145 143 137 134 133 113 117 119 109 107 107 102 94 87 75 58 48 35 19 17 2 351 348 344 340 328 324 318 313 315 325 330 326 327 327 323 328 331 334 337 342 347 351 354 356 356 356 354 353 352
198 207 202 188 184 195 191 190 186 181 180 186 186 188 189 189 185 180 186 177 168 173 174 175 178 176 165 164 161 159 159 160 157 155 151 147 144 139 140 127 132 136 119 121 106 101 100 98 87 82 75 67 40 24 13 10 349 340 337 333 330 327 321 321 326 331 325 326 325 325 327 326 330 332 335 338 345 348 353 356 356 354 352 351 351
210 204 190 181 193 191 189 191 184 183 184 186 188 191 187 187 181 186 182 172 174 170 176 181 179 176 166 165 162 160 163 162 164 159 153 147 144 140 138 143 149 142 133 128 115 105 88 81 66 68 62 51 36 15 7 6 353 340 335 324 329 321 315 320 323 327 325 323 327 326 328 328 322 325 328 332 337 340 347 350 351 349 349 348 348
200 190 178 195 194 187 188 183 187 187 188 186 186 188 188 187 184 183 178 172 177 175 180 179 176 173 168 165 162 164 164 167 160 159 151 145 145 144 145 152 154 142 137 123 106 110 100 86 83 71 56 50 34 14 9 355 343 332 329 321 322 313 314 316 322 318 315 318 319 325 318 308 307 308 317 327 333 336 340 342 343 345 344 346 347
187 187 193 197 184 185 181 186 188 189 185 188 188 189 185 185 182 181 180 178 177 178 176 174 177 175 167 166 165 166 168 168 169 156 155 148 146 147 150 156 150 139 122 124 114 97 97 91 92 79 67 54 46 27 14 350 336 332 328 325 316 316 311 310 320 317 313 309 317 314 318 324 324 326 328 334 335 337 336 340 342 343 346 350 346
196 198 197 180 187 185 185 186 184 187 189 189 189 187 184 184 183 181 177 179 176 178 177 179 177 170 169 166 170 168 169 170 167 161 150 154 150 151 155 151 144 127 121 112 99 102 100 92 80 91 64 40 31 13 12 344 332 322 319 316 308 306 303 312 312 304 295 303 309 311 321 318 316 320 335 339 335 331 338 341 343 347 354 352 345
199 192 187 183 187 186 186 185 186 189 188 188 185 184 180 182 183 181 178 176 179 178 177 172 170 173 172 170 172 170 170 170 169 164 151 153 150 145 155 151 141 130 122 110 104 124 115 107 86 75 87 69 39 7 348 346 327 319 316 310 301 296 294 303 296 288 298 304 304 307 323 325 321 328 330 333 339 344 344 343 346 351 353 347 340
198 192 188 185 187 184 186 188 188 187 184 184 183 182 181 173 177 178 175 180 185 177 172 170 177 177 172 173 173 170 171 172 169 162 152 151 149 148 152 149 139 129 124 117 122 112 109 111 96 71 79 79 44 7 334 328 325 314 316 308 301 292 287 293 284 286 295 293 297 325 326 317 324 317 325 340 351 356 351 344 349 352 347 339 340
195 192 188 189 182 183 183 186 181 182 183 180 176 172 161 153 145 162 175 183 184 180 170 179 181 176 181 174 172 173 172 171 167 162 154 153 149 149 148 153 140 135 127 127 122 117 108 96 110 90 69 102 130 231 273 312 311 307 298 293 289 283 281 265 259 261 259 272 314 352 346 333 325 324 332 347 360 3 355 356 354 349 342 342 343
192 186 185 183 184 181 183 183 184 179 172 170 162 163 162 168 168 162 180 198 188 178 184 186 177 183 183 176 178 176 173 171 168 164 156 155 153 155 152 153 148 139 139 139 145 146 140 116 115 114 87 59 75 175 262 300 293 280 281 279 278 279 275 244 239 253 66 355 312 327 335 319 334 320 338 351 3 3 4 357 351 343 342 340 337
188 182 182 187 185 182 176 185 182 174 173 173 176 172 175 173 177 190 196 187 186 179 185 188 187 189 184 183 180 176 173 169 169 164 163 156 153 152 151 157 153 149 149 159 158 153 148 139 131 120 121 91 53 297 267 233 9 317 234 265 296 286 284 251 235 132 351 323 332 360 321 330 318 336 335 358 6 2 360 347 336 336 332 331 324
194 183 187 189 186 180 185 183 175 180 183 181 180 182 184 185 183 192 186 180 179 184 190 192 191 186 185 184 182 178 174 174 170 167 161 161 159 162 163 165 160 158 156 149 150 150 141 133 138 88 54 124 135 142 326 86 20 39 322 331 314 322 323 68 178 352 358 347 343 66 316 326 327 324 338 5 351 350 332 320 316 317 313 309 305
187 188 191 182 182 185 188 179 181 180 185 182 178 187 187 186 185 178 178 176 198 196 188 184 174 183 189 186 182 179 176 175 171 169 167 170 167 163 169 165 164 158 147 151 155 156 160 153 155 138 113 55 111 33 40 66 145 276 215 26 349 12 330 351 304 359 330 321 338 45 353 331 321 322 335 354 328 319 312 297 301 299 295 293 291
186 191 183 186 186 189 184 182 182 183 182 184 186 185 174 154 133 131 149 148 172 163 162 157 175 171 192 189 189 183 180 175 173 173 171 172 170 170 164 168 168 165 157 155 162 166 159 155 147 140 133 106 91 65 46 67 90 31 13 46 267 95 338 331 332 304 228 261 233 338 351 332 325 326 351 320 290 291 283 280 282 283 280 277 280
191 190 188 188 188 188 184 180 180 184 184 182 179 161 140 127 114 97 103 93 80 143 156 193 190 188 181 194 195 177 178 179 178 179 175 175 173 171 171 169 164 164 156 157 165 172 170 166 158 145 150 139 141 132 346 51 60 65 137 50 350 11 239 276 332 282 331 345 339 325 324 334 322 307 309 282 278 278 276 285 281 280 278 279 282
198 197 191 188 182 182 179 180 179 182 183 179 171 163 168 163 154 154 168 183 186 179 195 196 187 192 197 174 165 184 180 177 180 179 179 174 178 176 172 166 166 165 164 162 158 151 166 162 174 157 149 143 135 129 130 360 80 108 130 134 146 197 310 309 20 310 275 253 236 235 261 254 251 299 295 290 292 283 280 285 285 278 276 287 284
206 189 183 185 182 178 180 180 179 180 178 175 171 170 171 177 181 185 185 187 193 208 203 187 190 190 159 177 184 179 183 179 184 181 181 181 176 175 174 173 167 164 160 152 163 172 169 170 164 152 166 148 126 133 161 169 12 18 107 149 119 121 136 357 290 330 324 329 178 183 264 224 287 303 289 267 263 275 281 272 270 266 274 280 277
191 171 179 177 181 180 177 180 179 178 179 174 177 179 180 184 187 191 192 196 200 199 185 189 176 172 179 183 178 185 185 185 180 184 182 181 178 176 174 170 168 170 164 169 168 165 156 156 161 165 154 154 154 144 158 158 140 208 115 97 89 85 144 179 186 244 272 307 311 295 173 139 14 250 271 276 269 281 282 265 251 259 272 275 286
163 177 183 183 178 174 176 176 181 179 179 178 180 186 187 185 188 188 197 207 199 188 171 170 176 177 183 181 183 184 184 187 185 181 183 181 179 177 175 174 172 173 170 163 162 162 165 161 159 153 165 163 157 147 131 166 148 173 131 255 127 176 234 190 194 159 213 261 282 290 307 314 299 245 259 214 266 268 258 258 256 257 264 284 286
184 177 171 168 174 172 178 180 186 182 179 181 185 187 188 183 189 196 200 195 186 169 168 179 180 177 188 186 185 182 186 185 187 183 179 182 180 178 180 181 178 171 169 168 162 163 165 164 164 161 159 156 151 142 151 161 165 166 165 159 146 119 93 294 221 193 241 217 250 272 291 306 321 328 328 312 295 246 264 253 251 267 273 272 281
170 168 171 175 175 177 180 184 186 178 180 185 184 190 190 190 197 197 198 194 186 174 172 185 179 180 192 190 188 190 184 188 180 187 185 180 183 182 182 183 175 172 168 168 174 169 168 164 161 156 160 156 158 150 148 156 159 161 169 169 186 177 193 189 203 205 223 255 283 263 261 260 276 298 292 295 316 309 294 283 288 270 264 264 275